Terminal Aerodrome Forecast
Issued by NWS

Home | Current Version | Previous Version | Text Only | Print | Product List | Glossary On
Versions: 1 2 3 4 5 6 7 8 9 10 11 12 13 14 15 16 17 18 19 20 21 22 23 24 25 26 27 28 29 30 31 32 33 34 35 36 37 38 39 40 41 42 43 44 45 46 47 48 49 50
000
FTUS45 KGJT 312332
TAFRIL
TAF
KRIL 312332Z 0100/0124 27007KT P6SM OVC045
     FM010100 VRB03KT P6SM SCT045 BKN060
     FM010500 VRB03KT P6SM VCFG SCT010 SCT060
     FM010800 VRB03KT 3SM BR SCT010 SCT060
     FM011600 VRB03KT P6SM VCFG SCT060
     FM011800 29003KT P6SM SCT060 SCT100=

USA.gov is the U.S. government's official web portal to all federal, state and local government web resources and services.